Home   Weather   Tallahassee   Past weeks

Flag for USA Past Weather in Tallahassee, Florida, USA — Yesterday and Last 2 Weeks

Now
81 °F

Passing clouds.


Feels Like: 80 °F
Forecast: 56 / 80 °F
Wind: 16 mph from South

Location: Tallahassee Regional Airport

Current Time: Apr 26, 2017 at 5:33:27 pm

Latest Report: Apr 26, 2017 at 4:53 pm


Visibility: 10 mi

Pressure: 29.81 "Hg

Humidity: 38%

Dew Point: 53 °F

Location of TallahasseeLocation

Past Weather in Tallahassee — Graph

°F

Tallahassee Temperature Yesterday

Maximum temperature yesterday: 82 °F (at 3:53 pm)
Minimum temperature yesterday: 51 °F (at 1:53 am)
Average temperature yesterday: 66 °F

High & Low Weather Summary for the Past Weeks

 TemperatureHumidityPressure
High87 °F (Apr 18, 2:53 pm)100% (Apr 23, 6:53 am)30.28 "Hg (Apr 23, 6:53 am)
Low51 °F (Apr 25, 1:53 am)30% (Apr 11, 5:53 pm)29.73 "Hg (Apr 23, 4:53 pm)
Average70 °F68%30.04 "Hg
* Reported Apr 11 3:53 pm — Apr 26 3:53 pm, Tallahassee, Weather by CustomWeather, © 2017

Note: Actual official high and low records may vary slightly from our data, if they occured in-between our weather recording intervals... More about our weather records

Advertising

Tallahassee Weather History for the Previous 24 Hours

Scroll right to see more
 ConditionsComfort  
Time TempWeatherWind HumidityBarometerVisibility
3:53 pm
Wed, Apr 26
81 °FScattered clouds.17 mph38%29.82 "Hg10 mi
2:53 pm81 °FPartly sunny.14 mph41%29.83 "Hg10 mi
1:53 pm81 °FBroken clouds.16 mph42%29.84 "Hg10 mi
12:53 pm79 °FPartly sunny.16 mph47%29.87 "Hg10 mi
11:53 am78 °FPartly sunny.12 mph54%29.87 "Hg10 mi
10:53 am76 °FPartly sunny.10 mph56%29.87 "Hg10 mi
9:53 am72 °FScattered clouds.3 mph66%29.86 "Hg10 mi
8:53 am65 °FPassing clouds.No wind78%29.85 "Hg10 mi
7:53 am55 °FSunny.No wind90%29.83 "Hg10 mi
6:53 am52 °FLight fog.No wind97%29.81 "Hg10 mi
5:53 am52 °FClear.No wind93%29.80 "Hg10 mi
4:53 am53 °FClear.No wind93%29.80 "Hg10 mi
3:53 am56 °FClear.No wind93%29.80 "Hg10 mi
2:53 am56 °FClear.No wind90%29.81 "Hg10 mi
1:53 am58 °FClear.No wind90%29.83 "Hg10 mi
12:53 am61 °FClear.No wind87%29.83 "Hg10 mi
11:53 pm
Tue, Apr 25
65 °FClear.No wind76%29.82 "Hg10 mi
10:53 pm65 °FPassing clouds.7 mph76%29.81 "Hg10 mi
9:53 pm68 °FPassing clouds.7 mph65%29.79 "Hg10 mi
8:53 pm70 °FPassing clouds.6 mph66%29.77 "Hg10 mi
7:53 pm75 °FScattered clouds.6 mph58%29.76 "Hg10 mi
6:53 pm77 °FScattered clouds.9 mph56%29.75 "Hg10 mi
5:53 pm78 °FBroken clouds.12 mph52%29.75 "Hg10 mi
Weather by CustomWeather, © 2017

See weather overviewHow to use our weather pages